TimeEST,TemperatureF,Dew PointF,Humidity,Sea Level PressureIn,VisibilityMPH,Wind Direction,Wind SpeedMPH,Gust SpeedMPH,PrecipitationIn,Events,Conditions,WindDirDegrees,DateUTC
12:54 AM,28.0,12.0,51,30.04,10.0,Calm,Calm,-,N/A,,Overcast,0,2014-03-02 05:54:00
1:54 AM,28.0,12.9,53,30.03,10.0,Variable,6.9,-,N/A,,Overcast,0,2014-03-02 06:54:00
2:54 AM,27.0,15.1,61,30.02,10.0,Calm,Calm,-,N/A,,Overcast,0,2014-03-02 07:54:00
3:54 AM,27.0,14.0,58,30.03,10.0,NW,3.5,-,N/A,,Overcast,320,2014-03-02 08:54:00
4:54 AM,27.0,16.0,63,30.04,7.0,NW,5.8,-,N/A,,Overcast,320,2014-03-02 09:54:00
5:54 AM,26.1,18.0,71,30.03,8.0,NW,6.9,-,0.00,,Overcast,320,2014-03-02 10:54:00
6:54 AM,26.1,19.0,75,30.03,8.0,West,3.5,-,N/A,,Overcast,280,2014-03-02 11:54:00
7:07 AM,26.1,19.0,75,29.99,7.0,WNW,4.6,-,N/A,,Overcast,290,2014-03-02 12:07:00
7:35 AM,26.1,19.9,78,30.00,6.0,WNW,15.0,19.6,N/A,,Haze,300,2014-03-02 12:35:00
7:54 AM,25.0,18.0,75,30.06,9.0,West,11.5,-,N/A,,Overcast,280,2014-03-02 12:54:00
8:03 AM,25.0,17.1,72,30.02,10.0,West,11.5,17.3,N/A,,Overcast,280,2014-03-02 13:03:00
8:54 AM,24.1,14.0,65,30.08,10.0,WNW,8.1,-,N/A,,Overcast,290,2014-03-02 13:54:00
9:54 AM,24.1,14.0,65,30.09,10.0,West,9.2,-,N/A,,Overcast,280,2014-03-02 14:54:00
10:54 AM,24.1,12.9,62,30.07,10.0,Variable,5.8,-,N/A,,Overcast,0,2014-03-02 15:54:00
11:46 AM,25.0,12.9,60,30.01,10.0,West,10.4,-,N/A,,Overcast,270,2014-03-02 16:46:00
11:54 AM,26.1,12.9,58,30.04,10.0,West,10.4,-,N/A,,Overcast,280,2014-03-02 16:54:00
12:54 PM,27.0,12.0,53,30.01,10.0,NNW,12.7,19.6,N/A,,Mostly Cloudy,330,2014-03-02 17:54:00
1:54 PM,25.0,10.0,53,30.01,10.0,WNW,12.7,-,N/A,,Overcast,290,2014-03-02 18:54:00
2:54 PM,24.1,10.0,55,30.00,10.0,WNW,10.4,-,N/A,,Partly Cloudy,300,2014-03-02 19:54:00
3:54 PM,23.0,7.0,50,30.01,10.0,NNW,10.4,19.6,N/A,,Overcast,330,2014-03-02 20:54:00
4:54 PM,23.0,7.0,50,30.02,10.0,NNW,8.1,-,N/A,,Clear,340,2014-03-02 21:54:00
5:54 PM,21.0,8.1,57,30.03,10.0,WNW,8.1,-,N/A,,Clear,300,2014-03-02 22:54:00
6:54 PM,19.9,8.1,60,30.03,10.0,WNW,8.1,-,N/A,,Overcast,290,2014-03-02 23:54:00
7:54 PM,19.9,7.0,57,30.04,10.0,WNW,9.2,-,N/A,,Overcast,300,2014-03-03 00:54:00
8:54 PM,19.0,6.1,57,30.03,10.0,WNW,12.7,-,N/A,,Overcast,300,2014-03-03 01:54:00
9:54 PM,18.0,7.0,62,30.04,10.0,NW,11.5,-,N/A,,Overcast,310,2014-03-03 02:54:00
10:54 PM,17.1,6.1,62,30.05,10.0,NW,9.2,-,N/A,,Overcast,320,2014-03-03 03:54:00
11:54 PM,15.1,3.0,59,30.05,10.0,WNW,16.1,24.2,N/A,,Partly Cloudy,300,2014-03-03 04:54:00